2013-12-19, 01:00:04,VALID,6.17797,INVALID - VALUE NOT AVAILABLE,0,INVALID - VALUE NOT AVAILABLE,0,VALID,0.0478378,VALID,19.2363,
2013-12-19, 09:33:04,VALID,917.448,VALID,0,VALID,55.5976,VALID,144.293,VALID,26.3511,VALID,207,VALID,0,
2013-12-19, 09:34:04,VALID,917.441,VALID,0,VALID,55.2012,VALID,193.502,VALID,26.3316,VALID,168,VALID,0,
2013-12-19, 09:35:04,VALID,917.429,VALID,0,VALID,54.7895,VALID,216.386,VALID,26.4312,VALID,166,VALID,0,
2013-12-19, 09:36:04,VALID,917.477,VALID,0,VALID,55.9559,VALID,245.181,VALID,26.5485,VALID,163,VALID,0,
2013-12-19, 09:37:04,VALID,917.492,VALID,0,VALID,55.468,VALID,253.346,VALID,26.6657,VALID,170,VALID,0,
2013-12-19, 09:38:04,VALID,917.503,VALID,0,VALID,55.224,VALID,326.191,VALID,26.7849,VALID,178,VALID,0,
2013-12-19, 09:39:04,VALID,917.502,VALID,0,VALID,55.9254,VALID,346.605,VALID,26.8435,VALID,178,VALID,0,
2013-12-19, 09:40:04,VALID,917.549,VALID,0,VALID,55.2012,VALID,422.459,VALID,26.824,VALID,178,VALID,0,
2013-12-19, 09:41:04,VALID,917.56,VALID,0,VALID,56.116,VALID,386.036,VALID,26.8045,VALID,178,VALID,0,
2013-12-19, 09:42:04,VALID,917.581,VALID,0,VALID,56.52,VALID,416.549,VALID,26.8045,VALID,183,VALID,0,
2013-12-19, 09:43:04,VALID,917.566,VALID,0,VALID,54.5303,VALID,396.78,VALID,26.7829,VALID,183,VALID,0,
2013-12-19, 09:44:04,VALID,917.565,VALID,0,VALID,52.8989,VALID,499.601,VALID,26.7047,VALID,186,VALID,0,
2013-12-19, 09:45:04,VALID,917.596,VALID,0,VALID,53.7984,VALID,522.809,VALID,26.6657,VALID,211,VALID,0,
2013-12-19, 09:46:04,VALID,917.632,VALID,0,VALID,50.8558,VALID,610.158,VALID,26.605,VALID,210,VALID,0,
2013-12-19, 09:47:04,VALID,917.606,VALID,0,VALID,52.3881,VALID,504.544,VALID,26.6071,VALID,213,VALID,0,
2013-12-19, 09:48:04,VALID,917.58,VALID,0,VALID,53.7146,VALID,620.58,VALID,26.6071,VALID,213,VALID,0,
2013-12-19, 09:49:04,VALID,917.613,VALID,0,VALID,51.519,VALID,535.809,VALID,26.6852,VALID,203,VALID,0,
2013-12-19, 09:50:04,VALID,917.61,VALID,0,VALID,50.9092,VALID,626.812,VALID,26.7613,VALID,199,VALID,0,
2013-12-19, 09:51:04,VALID,917.568,VALID,0,VALID,53.2572,VALID,536.561,VALID,26.8981,VALID,231,VALID,0,
2013-12-19, 09:52:04,VALID,917.571,VALID,0,VALID,53.2114,VALID,490.361,VALID,26.861,VALID,231,VALID,0,
2013-12-19, 09:53:04,VALID,917.558,VALID,0,VALID,51.7706,VALID,527.429,VALID,26.9001,VALID,214,VALID,0,
2013-12-19, 09:54:04,VALID,917.536,VALID,0,VALID,51.4276,VALID,492.403,VALID,26.9958,VALID,208,VALID,0,
2013-12-19, 09:55:04,VALID,917.542,VALID,0,VALID,53.0132,VALID,496.271,VALID,27.1521,VALID,208,VALID,0,
2013-12-19, 09:56:04,VALID,917.488,VALID,0,VALID,50.9244,VALID,506.048,VALID,27.1521,VALID,208,VALID,0,
2013-12-19, 09:57:04,VALID,917.488,VALID,0,VALID,52.5406,VALID,535.809,VALID,27.1716,VALID,208,VALID,0,
2013-12-19, 09:58:04,VALID,917.503,VALID,0,VALID,53.0056,VALID,499.386,VALID,27.367,VALID,220,VALID,0,
2013-12-19, 09:59:04,VALID,917.467,VALID,0,VALID,52.7388,VALID,543.115,VALID,27.2693,VALID,230,VALID,0,
2013-12-19, 10:00:04,VALID,917.49,VALID,0,VALID,52.5863,VALID,495.304,VALID,27.1911,VALID,230,VALID,0,
2013-12-19, 10:01:04,VALID,917.469,VALID,0,VALID,48.6984,VALID,503.362,VALID,26.8199,VALID,249,VALID,0,
2013-12-19, 10:02:04,VALID,917.46,VALID,0,VALID,50.9702,VALID,650.986,VALID,26.4663,VALID,250,VALID,0,
2013-12-19, 10:03:04,VALID,917.451,VALID,0,VALID,49.354,VALID,638.523,VALID,26.2925,VALID,254,VALID,0,
2013-12-19, 10:04:04,VALID,917.439,VALID,0,VALID,49.2168,VALID,459.526,VALID,26.273,VALID,261,VALID,0,
2013-12-19, 10:05:04,VALID,917.416,VALID,0,VALID,48.1571,VALID,492.295,VALID,26.3706,VALID,261,VALID,0,
2013-12-19, 10:06:04,VALID,917.377,VALID,0,VALID,50.2688,VALID,462.427,VALID,26.3316,VALID,241,VALID,0,
2013-12-19, 10:07:04,VALID,917.413,VALID,0,VALID,48.2715,VALID,454.261,VALID,26.4077,VALID,219,VALID,0,
2013-12-19, 10:08:04,VALID,917.4,VALID,0,VALID,46.701,VALID,603.282,VALID,26.564,VALID,220,VALID,0,
2013-12-19, 10:09:04,VALID,917.417,VALID,0,VALID,48.7441,VALID,625.845,VALID,26.6832,VALID,217,VALID,0,
2013-12-19, 10:10:04,VALID,917.401,VALID,0,VALID,51.5877,VALID,562.132,VALID,26.8395,VALID,246,VALID,0,
2013-12-19, 10:11:04,VALID,917.407,VALID,0,VALID,52.7769,VALID,533.123,VALID,26.8549,VALID,227,VALID,0,
2013-12-19, 10:12:04,VALID,917.403,VALID,0,VALID,50.7262,VALID,471.022,VALID,26.861,VALID,271,VALID,0,
2013-12-19, 10:13:04,VALID,917.368,VALID,0,VALID,50.5356,VALID,473.815,VALID,26.8415,VALID,267,VALID,0,
2013-12-19, 10:14:04,VALID,917.366,VALID,0,VALID,47.7455,VALID,691.599,VALID,26.7243,VALID,257,VALID,0,
2013-12-19, 10:15:04,VALID,917.351,VALID,0,VALID,50.0782,VALID,627.134,VALID,26.5875,VALID,257,VALID,0,
2013-12-19, 10:16:04,VALID,917.368,VALID,0,VALID,47.8522,VALID,665.705,VALID,26.5855,VALID,257,VALID,0,
2013-12-19, 10:17:04,VALID,917.343,VALID,0,VALID,49.8343,VALID,966.433,VALID,26.6461,VALID,254,VALID,0,
2013-12-19, 10:18:04,VALID,917.349,VALID,0,VALID,49.5903,VALID,1004.36,VALID,26.7788,VALID,257,VALID,0,
2013-12-19, 10:19:04,VALID,917.346,VALID,0,VALID,47.0136,VALID,919.911,VALID,26.8785,VALID,237,VALID,0,
2013-12-19, 10:20:04,VALID,917.339,VALID,0,VALID,50.5585,VALID,742.311,VALID,27.1695,VALID,261,VALID,0,
2013-12-19, 10:21:04,VALID,917.306,VALID,0,VALID,46.9145,VALID,791.949,VALID,27.2281,VALID,262,VALID,0,
2013-12-19, 10:22:04,VALID,917.261,VALID,0,VALID,46.3809,VALID,778.304,VALID,27.3258,VALID,261,VALID,0,
2013-12-19, 10:23:04,VALID,917.265,VALID,0,VALID,48.7594,VALID,950.317,VALID,27.5212,VALID,271,VALID,0,
2013-12-19, 10:24:04,VALID,917.288,VALID,0,VALID,45.8548,VALID,1051.1,VALID,27.404,VALID,250,VALID,0,
2013-12-19, 10:25:04,VALID,917.252,VALID,0,VALID,48.6526,VALID,738.121,VALID,27.1891,VALID,247,VALID,0,
2013-12-19, 10:26:04,VALID,917.239,VALID,0,VALID,48.6069,VALID,758.32,VALID,27.2281,VALID,251,VALID,0,
2013-12-19, 10:27:04,VALID,917.284,VALID,0,VALID,49.7733,VALID,818.916,VALID,26.9742,VALID,253,VALID,0,
2013-12-19, 10:28:04,VALID,917.24,VALID,0,VALID,50.6805,VALID,752.303,VALID,26.8374,VALID,256,VALID,0,
2013-12-19, 10:29:04,VALID,917.266,VALID,0,VALID,50.9397,VALID,589.637,VALID,26.9156,VALID,212,VALID,0,
2013-12-19, 10:30:04,VALID,917.263,VALID,0,VALID,51.0845,VALID,709.541,VALID,27.0719,VALID,221,VALID,0,
2013-12-19, 10:31:04,VALID,917.249,VALID,0,VALID,50.7796,VALID,652.275,VALID,27.15,VALID,206,VALID,0,
2013-12-19, 10:32:04,VALID,917.273,VALID,0,VALID,51.115,VALID,675.053,VALID,27.0719,VALID,237,VALID,0,
2013-12-19, 10:33:04,VALID,917.244,VALID,0,VALID,51.6868,VALID,690.095,VALID,27.15,VALID,18,VALID,0,
2013-12-19, 10:34:04,VALID,917.22,VALID,0,VALID,55.529,VALID,943.763,VALID,27.1695,VALID,1,VALID,0,
2013-12-19, 10:35:04,VALID,917.222,VALID,0,VALID,50.3527,VALID,778.519,VALID,27.3865,VALID,281,VALID,0,
2013-12-19, 10:36:04,VALID,917.256,VALID,0,VALID,52.4948,VALID,643.573,VALID,27.5233,VALID,351,VALID,0,
2013-12-19, 10:37:04,VALID,917.25,VALID,0,VALID,51.824,VALID,579.215,VALID,27.7362,VALID,9,VALID,0,
2013-12-19, 10:38:04,VALID,917.246,VALID,0,VALID,50.1163,VALID,561.273,VALID,27.9337,VALID,307,VALID,0,
2013-12-19, 10:39:04,VALID,917.218,VALID,0,VALID,48.7441,VALID,586.736,VALID,27.9902,VALID,316,VALID,0,
2013-12-19, 10:40:04,VALID,917.245,VALID,0,VALID,48.7365,VALID,653.135,VALID,28.127,VALID,358,VALID,0,
2013-12-19, 10:41:04,VALID,917.226,VALID,0,VALID,48.8051,VALID,500.568,VALID,28.1291,VALID,360,VALID,0,
2013-12-19, 10:42:04,VALID,917.242,VALID,0,VALID,50.8482,VALID,503.899,VALID,28.0488,VALID,270,VALID,0,
2013-12-19, 10:43:04,VALID,917.239,VALID,0,VALID,49.2168,VALID,556.653,VALID,27.9902,VALID,282,VALID,0,
2013-12-19, 10:44:04,VALID,917.207,VALID,0,VALID,49.7962,VALID,507.015,VALID,28.0293,VALID,358,VALID,0,
2013-12-19, 10:45:04,VALID,917.224,VALID,0,VALID,50.0553,VALID,687.409,VALID,27.9706,VALID,337,VALID,0,
2013-12-19, 10:46:04,VALID,917.167,VALID,0,VALID,48.8432,VALID,490.469,VALID,27.9902,VALID,349,VALID,0,
2013-12-19, 10:47:04,VALID,917.151,VALID,0,VALID,52.9065,VALID,494.014,VALID,27.7773,VALID,24,VALID,0,
2013-12-19, 10:48:04,VALID,917.099,VALID,0,VALID,50.8863,VALID,479.295,VALID,27.5994,VALID,33,VALID,0,
2013-12-19, 10:49:04,VALID,917.098,VALID,0,VALID,51.2675,VALID,602.96,VALID,27.5994,VALID,9,VALID,0,
2013-12-19, 10:50:04,VALID,917.116,VALID,0,VALID,53.2114,VALID,711.153,VALID,27.5603,VALID,281,VALID,0,
2013-12-19, 10:51:04,VALID,917.085,VALID,0,VALID,53.989,VALID,435.244,VALID,27.5798,VALID,16,VALID,0,
2013-12-19, 10:52:04,VALID,917.092,VALID,0,VALID,52.7922,VALID,452.542,VALID,27.4821,VALID,21,VALID,0,
2013-12-19, 10:53:04,VALID,917.092,VALID,0,VALID,52.8227,VALID,446.955,VALID,27.3649,VALID,3,VALID,0,
2013-12-19, 10:54:04,VALID,917.075,VALID,0,VALID,52.3119,VALID,451.897,VALID,27.2477,VALID,16,VALID,0,
2013-12-19, 10:55:04,VALID,917.09,VALID,0,VALID,53.0971,VALID,525.28,VALID,27.3454,VALID,8,VALID,0,
2013-12-19, 10:56:04,VALID,917.06,VALID,0,VALID,49.5065,VALID,441.368,VALID,27.5408,VALID,20,VALID,0,
2013-12-19, 10:57:04,VALID,917.066,VALID,0,VALID,51.3361,VALID,410.962,VALID,27.5798,VALID,9,VALID,0,
2013-12-19, 10:58:04,VALID,917.046,VALID,0,VALID,52.2585,VALID,415.905,VALID,27.6971,VALID,21,VALID,0,
2013-12-19, 10:59:04,VALID,917.051,VALID,0,VALID,52.2509,VALID,403.227,VALID,27.6601,VALID,9,VALID,0,
2013-12-19, 11:00:04,VALID,917.021,VALID,0,VALID,50.5432,VALID,400.541,VALID,27.5212,VALID,7,VALID,0,
2013-12-19, 11:01:04,VALID,917.02,VALID,0,VALID,50.2612,VALID,395.383,VALID,27.3063,VALID,25,VALID,0,
2013-12-19, 11:02:04,VALID,917.042,VALID,0,VALID,54.7819,VALID,390.763,VALID,26.9351,VALID,9,VALID,0,
2013-12-19, 11:03:04,VALID,917.022,VALID,0,VALID,54.2635,VALID,386.896,VALID,26.8004,VALID,8,VALID,0,
2013-12-19, 11:04:04,VALID,917.006,VALID,0,VALID,53.989,VALID,388.937,VALID,26.7788,VALID,33,VALID,0,
2013-12-19, 11:05:04,VALID,916.982,VALID,0,VALID,51.3971,VALID,394.739,VALID,26.8374,VALID,2,VALID,0,
2013-12-19, 11:06:04,VALID,917.011,VALID,0,VALID,54.1491,VALID,431.054,VALID,26.7182,VALID,356,VALID,0,
2013-12-19, 11:07:04,VALID,916.955,VALID,0,VALID,54.5837,VALID,426.864,VALID,26.7788,VALID,34,VALID,0,
2013-12-19, 11:08:04,VALID,916.918,VALID,0,VALID,54.6523,VALID,424.393,VALID,26.7593,VALID,20,VALID,0,
2013-12-19, 11:09:04,VALID,916.937,VALID,0,VALID,55.3612,VALID,417.301,VALID,26.7593,VALID,17,VALID,0,
2013-12-19, 11:10:04,VALID,916.954,VALID,0,VALID,54.8505,VALID,411.07,VALID,26.9351,VALID,12,VALID,0,
2013-12-19, 11:11:04,VALID,916.935,VALID,0,VALID,52.289,VALID,401.615,VALID,27.1109,VALID,341,VALID,0,
2013-12-19, 11:12:04,VALID,916.951,VALID,0,VALID,53.1733,VALID,403.549,VALID,27.3063,VALID,343,VALID,0,
2013-12-19, 11:13:04,VALID,916.92,VALID,0,VALID,54.1034,VALID,409.673,VALID,27.48,VALID,10,VALID,0,
2013-12-19, 11:14:04,VALID,916.936,VALID,0,VALID,51.3285,VALID,411.177,VALID,27.6385,VALID,12,VALID,0,
2013-12-19, 11:15:04,VALID,916.972,VALID,0,VALID,51.4276,VALID,413.971,VALID,27.5212,VALID,20,VALID,0,
2013-12-19, 11:16:04,VALID,916.935,VALID,0,VALID,51.9917,VALID,417.516,VALID,27.3454,VALID,14,VALID,0,
2013-12-19, 11:17:04,VALID,916.959,VALID,0,VALID,51.6944,VALID,420.31,VALID,27.2477,VALID,3,VALID,0,
2013-12-19, 11:18:04,VALID,916.963,VALID,0,VALID,52.998,VALID,422.136,VALID,27.0523,VALID,352,VALID,0,
2013-12-19, 11:19:04,VALID,916.956,VALID,0,VALID,52.5939,VALID,424.5,VALID,26.9742,VALID,25,VALID,0,
2013-12-19, 11:20:04,VALID,916.957,VALID,0,VALID,51.9612,VALID,427.508,VALID,26.9937,VALID,8,VALID,0,
2013-12-19, 11:21:04,VALID,916.964,VALID,0,VALID,51.7249,VALID,429.335,VALID,26.8374,VALID,31,VALID,0,
2013-12-19, 11:22:04,VALID,916.969,VALID,0,VALID,54.4007,VALID,433.203,VALID,26.8179,VALID,10,VALID,0,
2013-12-19, 11:23:04,VALID,916.95,VALID,0,VALID,55.0182,VALID,438.575,VALID,26.7593,VALID,11,VALID,0,
2013-12-19, 11:24:04,VALID,916.963,VALID,0,VALID,52.6092,VALID,446.74,VALID,26.7398,VALID,13,VALID,0,
2013-12-19, 11:25:04,VALID,916.941,VALID,0,VALID,53.6307,VALID,453.939,VALID,26.7984,VALID,30,VALID,0,
2013-12-19, 11:26:04,VALID,916.953,VALID,0,VALID,55.7805,VALID,460.708,VALID,26.9742,VALID,13,VALID,0,
2013-12-19, 11:27:04,VALID,916.936,VALID,0,VALID,51.8545,VALID,472.419,VALID,27.0719,VALID,15,VALID,0,
2013-12-19, 11:28:04,VALID,916.975,VALID,0,VALID,51.9917,VALID,478.758,VALID,27.2672,VALID,15,VALID,0,
2013-12-19, 11:29:04,VALID,916.943,VALID,0,VALID,51.7935,VALID,489.502,VALID,27.5017,VALID,4,VALID,0,
2013-12-19, 11:30:04,VALID,916.925,VALID,0,VALID,52.5406,VALID,501.965,VALID,27.5428,VALID,351,VALID,0,
2013-12-19, 11:31:04,VALID,916.938,VALID,0,VALID,53.6917,VALID,518.726,VALID,27.5603,VALID,19,VALID,0,
2013-12-19, 11:32:04,VALID,916.903,VALID,0,VALID,50.4899,VALID,517.759,VALID,27.658,VALID,357,VALID,0,
2013-12-19, 11:33:04,VALID,916.926,VALID,0,VALID,51.6105,VALID,502.717,VALID,27.5603,VALID,339,VALID,0,
2013-12-19, 11:34:04,VALID,916.879,VALID,0,VALID,50.2307,VALID,482.948,VALID,27.5212,VALID,28,VALID,0,
2013-12-19, 11:35:04,VALID,916.937,VALID,0,VALID,50.1392,VALID,467.906,VALID,27.5798,VALID,337,VALID,0,
2013-12-19, 11:36:04,VALID,916.886,VALID,0,VALID,49.2473,VALID,443.947,VALID,27.5212,VALID,9,VALID,0,
2013-12-19, 11:37:04,VALID,916.852,VALID,0,VALID,51.6868,VALID,434.17,VALID,27.4235,VALID,11,VALID,0,
2013-12-19, 11:38:04,VALID,916.881,VALID,0,VALID,51.4809,VALID,427.186,VALID,27.4431,VALID,18,VALID,0,
2013-12-19, 11:39:04,VALID,916.88,VALID,0,VALID,51.0693,VALID,421.384,VALID,27.4821,VALID,18,VALID,0,
2013-12-19, 11:40:04,VALID,916.865,VALID,0,VALID,49.5903,VALID,418.913,VALID,27.4235,VALID,7,VALID,0,
2013-12-19, 11:41:04,VALID,916.835,VALID,0,VALID,50.5966,VALID,414.83,VALID,27.2672,VALID,17,VALID,0,
2013-12-19, 11:42:04,VALID,916.831,VALID,0,VALID,52.6854,VALID,414.615,VALID,27.1695,VALID,3,VALID,0,
2013-12-19, 11:43:04,VALID,916.832,VALID,0,VALID,53.4706,VALID,415.797,VALID,27.1695,VALID,30,VALID,0,
2013-12-19, 11:44:04,VALID,916.803,VALID,0,VALID,54.3321,VALID,419.021,VALID,27.1675,VALID,352,VALID,0,
2013-12-19, 11:45:04,VALID,916.823,VALID,0,VALID,50.589,VALID,422.781,VALID,27.2672,VALID,341,VALID,0,
2013-12-19, 11:46:04,VALID,916.792,VALID,0,VALID,49.7504,VALID,416.979,VALID,27.2672,VALID,249,VALID,0,
2013-12-19, 11:47:04,VALID,916.778,VALID,0,VALID,49.88,VALID,447.278,VALID,27.15,VALID,293,VALID,0,
2013-12-19, 11:48:04,VALID,916.796,VALID,0,VALID,51.2827,VALID,430.624,VALID,26.9917,VALID,291,VALID,0,
2013-12-19, 11:49:04,VALID,916.804,VALID,0,VALID,52.106,VALID,437.071,VALID,26.9917,VALID,293,VALID,0,
2013-12-19, 11:50:04,VALID,916.759,VALID,0,VALID,52.2661,VALID,451.79,VALID,27.1284,VALID,303,VALID,0,
2013-12-19, 11:51:04,VALID,916.732,VALID,0,VALID,49.8571,VALID,475.212,VALID,27.1479,VALID,244,VALID,0,
2013-12-19, 11:52:04,VALID,916.732,VALID,0,VALID,50.7491,VALID,468.873,VALID,27.1109,VALID,286,VALID,0,
2013-12-19, 11:53:04,VALID,916.713,VALID,0,VALID,50.5661,VALID,465.972,VALID,27.0328,VALID,356,VALID,0,
2013-12-19, 11:54:04,VALID,916.672,VALID,0,VALID,54.0348,VALID,455.98,VALID,26.9156,VALID,12,VALID,0,
2013-12-19, 11:55:04,VALID,916.673,VALID,0,VALID,54.0195,VALID,453.831,VALID,26.894,VALID,348,VALID,0,
2013-12-19, 11:56:04,VALID,916.638,VALID,0,VALID,53.5164,VALID,459.418,VALID,27.0503,VALID,10,VALID,0,
2013-12-19, 11:57:04,VALID,916.625,VALID,0,VALID,53.9357,VALID,550.636,VALID,27.2456,VALID,17,VALID,0,
2013-12-19, 11:58:04,VALID,916.604,VALID,0,VALID,55.9635,VALID,523.99,VALID,27.2868,VALID,20,VALID,0,
2013-12-19, 11:59:04,VALID,916.586,VALID,0,VALID,53.6307,VALID,512.387,VALID,27.3649,VALID,31,VALID,0,
2013-12-19, 12:00:04,VALID,916.593,VALID,0,VALID,53.5316,VALID,751.873,VALID,27.4821,VALID,16,VALID,0,
2013-12-19, 12:01:04,VALID,916.593,VALID,0,VALID,52.9904,VALID,625.63,VALID,27.5798,VALID,19,VALID,0,
2013-12-19, 12:02:04,VALID,916.56,VALID,0,VALID,51.1989,VALID,607.58,VALID,27.6971,VALID,342,VALID,0,
2013-12-19, 12:03:04,VALID,916.529,VALID,0,VALID,48.5612,VALID,552.033,VALID,27.7145,VALID,8,VALID,0,
2013-12-19, 12:04:04,VALID,916.561,VALID,0,VALID,50.2231,VALID,545.801,VALID,27.8708,VALID,12,VALID,0,
2013-12-19, 12:05:04,VALID,916.556,VALID,0,VALID,48.4316,VALID,575.777,VALID,27.9706,VALID,307,VALID,0,
2013-12-19, 12:06:04,VALID,916.537,VALID,0,VALID,50.1468,VALID,529.9,VALID,27.8925,VALID,41,VALID,0,
2013-12-19, 12:07:04,VALID,916.544,VALID,0,VALID,52.2814,VALID,546.123,VALID,27.8708,VALID,310,VALID,0,
2013-12-19, 12:08:04,VALID,916.543,VALID,0,VALID,52.7769,VALID,610.91,VALID,27.8904,VALID,21,VALID,0,
2013-12-19, 12:09:04,VALID,916.54,VALID,0,VALID,49.4455,VALID,652.275,VALID,27.9859,VALID,19,VALID,0,
2013-12-19, 12:10:04,VALID,916.525,VALID,0,VALID,49.6437,VALID,829.875,VALID,27.8708,VALID,357,VALID,0,
2013-12-19, 12:11:04,VALID,916.525,VALID,0,VALID,49.6894,VALID,646.259,VALID,27.658,VALID,305,VALID,0,
2013-12-19, 12:12:04,VALID,916.516,VALID,0,VALID,53.059,VALID,660.656,VALID,27.441,VALID,20,VALID,0,
2013-12-19, 12:13:04,VALID,916.498,VALID,0,VALID,53.5011,VALID,439.972,VALID,27.3238,VALID,10,VALID,0,
2013-12-19, 12:14:04,VALID,916.495,VALID,0,VALID,55.6967,VALID,422.459,VALID,27.4605,VALID,342,VALID,0,
2013-12-19, 12:15:04,VALID,916.49,VALID,0,VALID,53.0971,VALID,409.566,VALID,27.4019,VALID,24,VALID,0,
2013-12-19, 12:16:04,VALID,916.472,VALID,0,VALID,51.2065,VALID,515.395,VALID,27.224,VALID,356,VALID,0,
2013-12-19, 12:17:04,VALID,916.486,VALID,0,VALID,53.8137,VALID,770.568,VALID,27.1695,VALID,340,VALID,0,
2013-12-19, 12:18:04,VALID,916.492,VALID,0,VALID,54.7438,VALID,959.987,VALID,27.2261,VALID,22,VALID,0,
2013-12-19, 12:19:04,VALID,916.516,VALID,0,VALID,54.576,VALID,733.608,VALID,27.2868,VALID,346,VALID,0,
2013-12-19, 12:20:04,VALID,916.484,VALID,0,VALID,52.5025,VALID,419.128,VALID,27.2651,VALID,4,VALID,0,
2013-12-19, 12:21:04,VALID,916.455,VALID,0,VALID,53.0666,VALID,532.586,VALID,27.1479,VALID,351,VALID,0,
2013-12-19, 12:22:04,VALID,916.445,VALID,0,VALID,54.172,VALID,770.675,VALID,27.15,VALID,321,VALID,0,
2013-12-19, 12:23:04,VALID,916.471,VALID,0,VALID,54.6294,VALID,731.889,VALID,27.3063,VALID,321,VALID,0,
2013-12-19, 12:24:04,VALID,916.471,VALID,0,VALID,53.2801,VALID,990.285,VALID,27.4605,VALID,2,VALID,0,
2013-12-19, 12:25:04,VALID,916.463,VALID,0,VALID,50.6576,VALID,968.797,VALID,27.5408,VALID,12,VALID,0,
2013-12-19, 12:26:04,VALID,916.462,VALID,0,VALID,53.4935,VALID,957.086,VALID,27.4431,VALID,301,VALID,0,
2013-12-19, 12:27:04,VALID,916.41,VALID,0,VALID,53.3792,VALID,934.631,VALID,27.4605,VALID,301,VALID,0,
2013-12-19, 12:28:04,VALID,916.414,VALID,0,VALID,54.576,VALID,946.342,VALID,27.5994,VALID,297,VALID,0,
2013-12-19, 12:29:04,VALID,916.395,VALID,0,VALID,51.9612,VALID,938.069,VALID,27.8534,VALID,10,VALID,0,
2013-12-19, 12:30:04,VALID,916.351,VALID,0,VALID,49.4226,VALID,940.755,VALID,27.9511,VALID,264,VALID,0,
2013-12-19, 12:31:04,VALID,916.338,VALID,0,VALID,51.7249,VALID,881.447,VALID,28.0076,VALID,35,VALID,0,
2013-12-19, 12:32:04,VALID,916.329,VALID,0,VALID,49.9944,VALID,894.233,VALID,28.3419,VALID,309,VALID,0,
2013-12-19, 12:33:04,VALID,916.31,VALID,0,VALID,50.3984,VALID,909.812,VALID,28.5157,VALID,20,VALID,0,
2013-12-19, 12:34:04,VALID,916.28,VALID,0,VALID,48.8432,VALID,901.754,VALID,28.5765,VALID,325,VALID,0,
2013-12-19, 12:35:04,VALID,916.284,VALID,0,VALID,50.0401,VALID,894.233,VALID,28.3615,VALID,341,VALID,0,
2013-12-19, 12:36:04,VALID,916.267,VALID,0,VALID,50.9625,VALID,890.257,VALID,28.2442,VALID,356,VALID,0,
2013-12-19, 12:37:04,VALID,916.217,VALID,0,VALID,49.6437,VALID,879.298,VALID,28.3398,VALID,39,VALID,0,
2013-12-19, 12:38:04,VALID,916.157,VALID,0,VALID,52.5939,VALID,872.315,VALID,28.3202,VALID,19,VALID,0,
2013-12-19, 12:39:04,VALID,916.163,VALID,0,VALID,49.8724,VALID,868.769,VALID,28.3202,VALID,19,VALID,0,
2013-12-19, 12:40:04,VALID,916.167,VALID,0,VALID,50.7186,VALID,864.471,VALID,28.418,VALID,306,VALID,0,
2013-12-19, 12:41:04,VALID,916.157,VALID,0,VALID,50.5585,VALID,849,VALID,28.6329,VALID,9,VALID,0,
2013-12-19, 12:42:04,VALID,916.131,VALID,0,VALID,49.4074,VALID,836.644,VALID,28.8479,VALID,58,VALID,0,
2013-12-19, 12:43:04,VALID,916.146,VALID,0,VALID,48.5078,VALID,818.487,VALID,29.0021,VALID,17,VALID,0,
2013-12-19, 12:44:04,VALID,916.104,VALID,0,VALID,46.9069,VALID,795.387,VALID,29.0043,VALID,244,VALID,0,
2013-12-19, 12:45:04,VALID,916.107,VALID,0,VALID,48.2867,VALID,835.785,VALID,28.8284,VALID,261,VALID,0,
2013-12-19, 12:46:04,VALID,916.125,VALID,0,VALID,49.2701,VALID,809.032,VALID,28.8284,VALID,37,VALID,0,
2013-12-19, 12:47:04,VALID,916.155,VALID,0,VALID,46.7468,VALID,833.958,VALID,28.9066,VALID,332,VALID,0,
2013-12-19, 12:48:04,VALID,916.127,VALID,0,VALID,49.5598,VALID,853.19,VALID,28.7915,VALID,16,VALID,0,
2013-12-19, 12:49:04,VALID,916.084,VALID,0,VALID,46.6324,VALID,862.108,VALID,28.7111,VALID,341,VALID,0,
2013-12-19, 12:50:04,VALID,916.093,VALID,0,VALID,48.8204,VALID,874.678,VALID,28.672,VALID,25,VALID,0,
2013-12-19, 12:51:04,VALID,916.038,VALID,0,VALID,48.645,VALID,882.844,VALID,28.8088,VALID,14,VALID,0,
2013-12-19, 12:52:04,VALID,916.062,VALID,0,VALID,49.2701,VALID,892.836,VALID,28.8697,VALID,11,VALID,0,
2013-12-19, 12:53:04,VALID,916.056,VALID,0,VALID,50.4518,VALID,898.53,VALID,28.9283,VALID,25,VALID,0,
2013-12-19, 12:54:04,VALID,916.011,VALID,0,VALID,46.3275,VALID,929.903,VALID,28.9652,VALID,295,VALID,0,
2013-12-19, 12:55:04,VALID,916.026,VALID,0,VALID,48.3553,VALID,865.224,VALID,28.887,VALID,312,VALID,0,
2013-12-19, 12:56:04,VALID,915.982,VALID,0,VALID,48.7594,VALID,933.234,VALID,28.8132,VALID,165,VALID,0,
2013-12-19, 12:57:04,VALID,915.948,VALID,0,VALID,47.4329,VALID,842.983,VALID,28.8741,VALID,226,VALID,0,
2013-12-19, 12:58:04,VALID,915.959,VALID,0,VALID,50.1849,VALID,778.626,VALID,28.9674,VALID,326,VALID,0,
2013-12-19, 12:59:04,VALID,915.946,VALID,0,VALID,47.9055,VALID,770.461,VALID,29.0412,VALID,281,VALID,0,
2013-12-19, 13:00:04,VALID,915.943,VALID,0,VALID,46.6553,VALID,754.344,VALID,29.102,VALID,270,VALID,0,
2013-12-19, 13:01:04,VALID,915.892,VALID,0,VALID,46.7239,VALID,748.865,VALID,29.039,VALID,243,VALID,0,
2013-12-19, 13:02:04,VALID,915.91,VALID,0,VALID,48.9271,VALID,878.869,VALID,28.9999,VALID,352,VALID,0,
2013-12-19, 13:03:04,VALID,915.873,VALID,0,VALID,47.0365,VALID,869.306,VALID,29.1629,VALID,11,VALID,0,
2013-12-19, 13:04:04,VALID,915.881,VALID,0,VALID,44.5589,VALID,779.056,VALID,29.2171,VALID,314,VALID,0,
2013-12-19, 13:05:04,VALID,915.823,VALID,0,VALID,44.8638,VALID,790.445,VALID,29.0065,VALID,313,VALID,0,
2013-12-19, 13:06:04,VALID,915.795,VALID,0,VALID,46.0683,VALID,825.685,VALID,28.9652,VALID,246,VALID,0,
2013-12-19, 13:07:04,VALID,915.755,VALID,0,VALID,47.5091,VALID,852.546,VALID,29.2193,VALID,10,VALID,0,
2013-12-19, 13:08:04,VALID,915.787,VALID,0,VALID,47.5854,VALID,778.519,VALID,29.4539,VALID,10,VALID,0,
2013-12-19, 13:09:04,VALID,915.768,VALID,0,VALID,45.123,VALID,660.011,VALID,29.5494,VALID,225,VALID,0,
2013-12-19, 13:10:04,VALID,915.767,VALID,0,VALID,45.6109,VALID,482.841,VALID,29.6494,VALID,92,VALID,0,
2013-12-19, 13:11:04,VALID,915.767,VALID,0,VALID,42.9656,VALID,718.029,VALID,29.7298,VALID,288,VALID,0,
2013-12-19, 13:12:04,VALID,915.723,VALID,0,VALID,44.1624,VALID,611.662,VALID,29.7276,VALID,285,VALID,0,
2013-12-19, 13:13:04,VALID,915.74,VALID,0,VALID,45.3212,VALID,685.797,VALID,29.708,VALID,321,VALID,0,
2013-12-19, 13:14:04,VALID,915.707,VALID,0,VALID,47.1585,VALID,798.61,VALID,29.4148,VALID,351,VALID,0,
2013-12-19, 13:15:04,VALID,915.691,VALID,0,VALID,46.6782,VALID,747.253,VALID,29.1042,VALID,23,VALID,0,
2013-12-19, 13:16:04,VALID,915.674,VALID,0,VALID,43.4763,VALID,860.604,VALID,28.887,VALID,321,VALID,0,
2013-12-19, 13:17:04,VALID,915.707,VALID,0,VALID,49.2244,VALID,682.251,VALID,28.6742,VALID,272,VALID,0,
2013-12-19, 13:18:04,VALID,915.671,VALID,0,VALID,47.4176,VALID,789.478,VALID,28.4375,VALID,281,VALID,0,
2013-12-19, 13:19:04,VALID,915.645,VALID,0,VALID,47.2652,VALID,641.746,VALID,28.4766,VALID,304,VALID,0,
2013-12-19, 13:20:04,VALID,915.675,VALID,0,VALID,46.6324,VALID,631.002,VALID,28.6742,VALID,257,VALID,0,
2013-12-19, 13:21:04,VALID,915.656,VALID,0,VALID,47.936,VALID,847.603,VALID,28.672,VALID,7,VALID,0,